Location: Saint Louis
(38.6272°N, 90.1978°W)
Time: 23:01:55
(UTC-05:00)

ISS - Pass Details

Date: 23 June 2013
Orbit: 402 x 404 km, 51.6° (Epoch: 27 May)

Event Time Altitude Azimuth Distance (km) Brightness Sun altitude
Rises 20:56:22 0° 313° (NW) 2,321 3.0 -5.3°
Reaches altitude 10° 20:58:31 10° 320° (NW) 1,457 1.1 -5.6°
Maximum altitude 21:01:39 43° 34° (NE) 577 -2.5 -6.1°
Drops below altitude 10° 21:04:46 10° 108° (ESE) 1,447 -1.1 -6.6°
Enters shadow 21:05:11 - 110° (ESE) 1,611 -0.9 -6.6°
